Regional Weather Roundup
Issued by NWS

Home | Current Version | Previous Version | Graphics & Text | Print | Product List | Glossary On
Versions: 1 2 3 4 5 6 7 8 9 10 11 12 13 14 15 16 17 18 19 20 21 22 23 24 25 26 27 28 29 30 31 32 33 34 35 36 37 38 39 40 41 42 43 44 45 46 47 48 49 50
000
ASUS43 KFSD 232210
RWRSD

WEATHER ROUNDUP FOR SOUTH DAKOTA
NATIONAL WEATHER SERVICE SIOUX FALLS SD
500 PM CDT FRI JUN 23 2017

NOTE: "FAIR" INDICATES FEW OR NO CLOUDS BELOW 12,000 FEET WITH NO
SIGNIFICANT WEATHER AND/OR OBSTRUCTIONS TO VISIBILITY.


SDZ001>005-009-010-012>017-232300-
NORTHWEST AND NORTH CENTRAL SOUTH DAKOTA

CITY           SKY/WX    TMP DP  RH WIND       PRES   REMARKS
BUFFALO          N/A     67  27  22 NW24G37   30.10S
FAITH            N/A     69  33  26 NW18G35   30.11S
MOBRIDGE       MOSUNNY   70  33  25 N21       30.03S
$$

SDZ012>016-024>037-041>051-057-063-072>074-232300-
SOUTHWEST AND SOUTH CENTRAL SOUTH DAKOTA

CITY           SKY/WX    TMP DP  RH WIND       PRES   REMARKS
RAPID CTY ARPT SUNNY     70  30  22 N30G39    30.15S
PIERRE         SUNNY     70  33  25 NW26G33   30.07S
CUSTER         SUNNY     61  22  22 NW12G33   30.22S
ELLSWORTH AFB  SUNNY     69  30  23 NW20G36   30.16R
PHILIP         MOSUNNY   73  32  22 NW24G30   30.10F
PINE RIDGE     MOSUNNY   71  40  32 N16       30.14F
SPEARFISH      FAIR      64  32  29 NW15G29   30.21S
WINNER         FAIR      74  33  22 NW24G32   30.07S
$$

SDZ004>011-016>023-039-040-232300-
NORTHEAST SOUTH DAKOTA

CITY           SKY/WX    TMP DP  RH WIND       PRES   REMARKS
ABERDEEN       PTSUNNY   66  39  37 NW18G29   30.00S
WATERTOWN      PTSUNNY   62  47  57 NW16G24   29.98S
BROOKINGS      PTSUNNY   65  46  50 NW18G26   29.99S
SISSETON         N/A     69  45  41 NW20      29.94S
$$

SDZ017-020-022-023-036>040-048>070-232300-
SOUTHEAST SOUTH DAKOTA

CITY           SKY/WX    TMP DP  RH WIND       PRES   REMARKS
SIOUX FALLS    MOSUNNY   67  50  54 NW17G24   29.99S
HURON          MOSUNNY   69  39  33 NW20G28   30.01S
CHAMBERLAIN    SUNNY     72  38  28 NW20      30.06S
MITCHELL       SUNNY     72  37  28 NW24G30   30.02S
YANKTON        MOSUNNY   71  45  39 NW18G25   30.01
$$

ABBREVIATIONS USED IN REMARKS
   TC - TEMPERATURE IN CELSIUS
  WCI - WIND CHILL INDEX
   HX - HEAT INDEX
  VSB - VISIBILITY




USA.gov is the U.S. government's official web portal to all federal, state and local government web resources and services.